,,,PA_Meas_PMT16A,,PR_Meas_QMR101_102,,RH_Meas_QMH101,,SR_Meas_QMS101,,TA_Meas_QMH101,,GenWind,,GenWind,
date,time,status,PA,status,PR,status,RH,status,SR,status,TA,status,DirAvg,status,SpdAvg,
2008-05-10, 00:00:04,VALID,1009.12,VALID,0,VALID,94.9483,VALID,0,VALID,24.493,VALID,85,VALID,0.411328,
2008-05-10, 00:01:04,VALID,1009.1,VALID,0,VALID,94.9025,VALID,0.105969,VALID,24.4911,VALID,85,VALID,0.219922,
2008-05-10, 00:02:04,VALID,1009.12,VALID,0,VALID,94.811,VALID,0.105969,VALID,24.493,VALID,85,VALID,0.380859,
2008-05-10, 00:03:04,VALID,1009.04,VALID,0,VALID,94.7347,VALID,0.105969,VALID,24.4717,VALID,71,VALID,0.602734,
2008-05-10, 00:04:04,VALID,1009.04,VALID,0,VALID,94.6356,VALID,0.105969,VALID,24.4911,VALID,57,VALID,0.471094,
2008-05-10, 00:05:04,VALID,1009.03,VALID,0,VALID,94.5136,VALID,0.105969,VALID,24.4911,VALID,57,VALID,0.350781,
2008-05-10, 00:06:04,VALID,1009.02,VALID,0,VALID,94.4221,VALID,0,VALID,24.5106,VALID,62,VALID,0.31875,
2008-05-10, 00:07:04,VALID,1009,VALID,0,VALID,94.3382,VALID,0,VALID,24.5125,VALID,66,VALID,0.580078,
2008-05-10, 00:08:04,VALID,1008.98,VALID,0,VALID,94.2848,VALID,0,VALID,24.493,VALID,73,VALID,0.375,
2008-05-10, 00:09:04,VALID,1008.97,VALID,0,VALID,94.2391,VALID,0,VALID,24.493,VALID,73,VALID,0.359766,
2008-05-10, 00:10:04,VALID,1008.97,VALID,0,VALID,94.2086,VALID,0,VALID,24.493,VALID,74,VALID,0.282813,
2008-05-10, 00:11:04,VALID,1008.95,VALID,0,VALID,94.1628,VALID,0,VALID,24.493,VALID,74,VALID,0.185156,
2008-05-10, 00:12:04,VALID,1008.95,VALID,0,VALID,94.1247,VALID,0,VALID,24.493,VALID,74,VALID,0.384375,
2008-05-10, 00:13:04,VALID,1008.9,VALID,0,VALID,94.0713,VALID,0,VALID,24.493,VALID,74,VALID,0.382031,
2008-05-10, 00:14:04,VALID,1008.91,VALID,0,VALID,94.0332,VALID,0,VALID,24.4717,VALID,74,VALID,0.372266,
2008-05-10, 00:15:04,VALID,1008.92,VALID,0,VALID,94.0637,VALID,0,VALID,24.493,VALID,74,VALID,0.232812,
2008-05-10, 00:16:04,VALID,1008.92,VALID,0,VALID,93.9798,VALID,0,VALID,24.4717,VALID,74,VALID,0.204688,
2008-05-10, 00:17:04,VALID,1008.9,VALID,0,VALID,94.0103,VALID,0,VALID,24.5125,VALID,74,VALID,0.216016,
2008-05-10, 00:18:04,VALID,1008.9,VALID,0,VALID,94.0408,VALID,0,VALID,24.493,VALID,74,VALID,0.388281,
2008-05-10, 00:19:04,VALID,1008.87,VALID,0,VALID,94.0255,VALID,0,VALID,24.4735,VALID,74,VALID,0.323828,
2008-05-10, 00:20:04,VALID,1008.84,VALID,0,VALID,94.0255,VALID,0,VALID,24.454,VALID,74,VALID,0.420312,
2008-05-10, 00:21:04,VALID,1008.81,VALID,0,VALID,94.0408,VALID,0,VALID,24.454,VALID,73,VALID,0.260938,
2008-05-10, 00:22:04,VALID,1008.78,VALID,0,VALID,94.0865,VALID,0,VALID,24.4345,VALID,71,VALID,0.476953,
2008-05-10, 00:23:04,VALID,1008.76,VALID,0,VALID,94.1094,VALID,0,VALID,24.4345,VALID,72,VALID,0.349219,
2008-05-10, 00:24:04,VALID,1008.75,VALID,0,VALID,94.1018,VALID,0,VALID,24.415,VALID,72,VALID,0.159375,
2008-05-10, 00:25:04,VALID,1008.73,VALID,0,VALID,94.1552,VALID,0,VALID,24.415,VALID,100,VALID,0.433203,
2008-05-10, 00:26:04,VALID,1008.69,VALID,0,VALID,94.1552,VALID,0,VALID,24.4345,VALID,101,VALID,0.617969,
2008-05-10, 00:27:04,VALID,1008.69,VALID,0,VALID,94.1399,VALID,0,VALID,24.4345,VALID,100,VALID,0.649609,
2008-05-10, 00:28:04,VALID,1008.66,VALID,0,VALID,94.1247,VALID,0,VALID,24.4345,VALID,86,VALID,0.635547,
2008-05-10, 00:29:04,VALID,1008.63,VALID,0,VALID,94.1171,VALID,0,VALID,24.4327,VALID,79,VALID,0.463672,
2008-05-10, 00:30:04,VALID,1008.58,VALID,0,VALID,94.0789,VALID,0.105969,VALID,24.4345,VALID,62,VALID,0.487891,
2008-05-10, 00:31:04,VALID,1008.58,VALID,0,VALID,94.0789,VALID,0.105969,VALID,24.3937,VALID,85,VALID,0.6,
2008-05-10, 00:32:04,VALID,1008.53,VALID,0,VALID,94.0865,VALID,0,VALID,24.4345,VALID,97,VALID,0.752344,
2008-05-10, 00:33:04,VALID,1008.53,VALID,0,VALID,94.0789,VALID,0,VALID,24.4345,VALID,78,VALID,0.825391,
2008-05-10, 00:34:04,VALID,1008.51,VALID,0,VALID,94.0408,VALID,0,VALID,24.454,VALID,64,VALID,1.01602,
2008-05-10, 00:35:04,VALID,1008.5,VALID,0,VALID,93.9645,VALID,0,VALID,24.493,VALID,83,VALID,0.710547,
2008-05-10, 00:36:04,VALID,1008.47,VALID,0,VALID,93.8959,VALID,0,VALID,24.454,VALID,70,VALID,0.625,
2008-05-10, 00:37:04,VALID,1008.42,VALID,0,VALID,93.8883,VALID,0,VALID,24.454,VALID,59,VALID,0.686328,
2008-05-10, 00:38:04,VALID,1008.41,VALID,0,VALID,93.873,VALID,0,VALID,24.454,VALID,69,VALID,0.617578,
2008-05-10, 00:39:04,VALID,1008.38,VALID,0,VALID,93.8273,VALID,0,VALID,24.4345,VALID,63,VALID,0.661328,
2008-05-10, 00:40:04,VALID,1008.37,VALID,0,VALID,93.9188,VALID,0,VALID,24.415,VALID,96,VALID,0.607813,
2008-05-10, 00:41:04,VALID,1008.4,VALID,0,VALID,93.9722,VALID,0,VALID,24.3956,VALID,73,VALID,0.298438,
2008-05-10, 00:42:04,VALID,1008.38,VALID,0,VALID,94.0027,VALID,0,VALID,24.3761,VALID,82,VALID,0.496875,
2008-05-10, 00:43:04,VALID,1008.38,VALID,0,VALID,93.995,VALID,0,VALID,24.3566,VALID,46,VALID,0.622266,
2008-05-10, 00:44:04,VALID,1008.37,VALID,0,VALID,94.0408,VALID,0,VALID,24.3566,VALID,349,VALID,0.527344,
2008-05-10, 00:45:04,VALID,1008.38,VALID,0,VALID,94.056,VALID,0,VALID,24.3371,VALID,349,VALID,0.226953,
2008-05-10, 00:46:04,VALID,1008.38,VALID,0,VALID,94.0789,VALID,0,VALID,24.3371,VALID,9,VALID,0.292578,
2008-05-10, 00:47:04,VALID,1008.39,VALID,0,VALID,94.1094,VALID,0,VALID,24.2981,VALID,42,VALID,0.273438,
2008-05-10, 00:48:04,VALID,1008.4,VALID,0,VALID,94.1552,VALID,0,VALID,24.2981,VALID,42,VALID,0.330859,
2008-05-10, 00:49:04,VALID,1008.41,VALID,0,VALID,94.2009,VALID,0,VALID,24.2786,VALID,42,VALID,0.01875,
2008-05-10, 00:50:04,VALID,1008.41,VALID,0,VALID,94.2391,VALID,0,VALID,24.2591,VALID,42,VALID,0.223047,
2008-05-10, 00:51:04,VALID,1008.38,VALID,0,VALID,94.2543,VALID,0,VALID,24.2183,VALID,42,VALID,0.0453125,
2008-05-10, 00:52:04,VALID,1008.4,VALID,0,VALID,94.3077,VALID,0,VALID,24.2202,VALID,42,VALID,0.377344,
2008-05-10, 00:53:04,VALID,1008.37,VALID,0,VALID,94.3458,VALID,0,VALID,24.2007,VALID,53,VALID,0.270312,
2008-05-10, 00:54:04,VALID,1008.36,VALID,0,VALID,94.3916,VALID,0,VALID,24.2007,VALID,53,VALID,0.236719,
2008-05-10, 00:55:04,VALID,1008.35,VALID,0,VALID,94.4297,VALID,0,VALID,24.1812,VALID,53,VALID,0.153516,
2008-05-10, 00:56:04,VALID,1008.37,VALID,0,VALID,94.4831,VALID,0,VALID,24.1617,VALID,53,VALID,0.256641,
2008-05-10, 00:57:04,VALID,1008.37,VALID,0,VALID,94.5822,VALID,0,VALID,24.1422,VALID,55,VALID,0.508984,
2008-05-10, 00:58:04,VALID,1008.39,VALID,0,VALID,94.628,VALID,0,VALID,24.1422,VALID,55,VALID,0.386719,
2008-05-10, 00:59:04,VALID,1008.36,VALID,0,VALID,94.6127,VALID,0,VALID,24.1422,VALID,55,VALID,0.237891,
2008-05-10, 01:00:04,VALID,1008.4,VALID,0,VALID,94.6508,VALID,0,VALID,24.1227,VALID,55,VALID,0.226172,
2008-05-10, 01:01:04,VALID,1008.39,VALID,0,VALID,94.7042,VALID,0,VALID,24.1032,VALID,55,VALID,0.334375,
2008-05-10, 01:02:04,VALID,1008.39,VALID,0,VALID,94.7271,VALID,0,VALID,24.0837,VALID,55,VALID,0.414063,
2008-05-10, 01:03:04,VALID,1008.34,VALID,0,VALID,94.7729,VALID,0,VALID,24.1032,VALID,55,VALID,0.198437,
2008-05-10, 01:04:04,VALID,1008.38,VALID,0,VALID,94.811,VALID,0,VALID,24.0837,VALID,54,VALID,0.380859,
2008-05-10, 01:05:04,VALID,1008.37,VALID,0,VALID,94.872,VALID,0,VALID,24.0837,VALID,48,VALID,0.311328,
2008-05-10, 01:06:04,VALID,1008.36,VALID,0,VALID,94.9254,VALID,0,VALID,24.0837,VALID,48,VALID,0.38125,
2008-05-10, 01:07:04,VALID,1008.4,VALID,0,VALID,94.9406,VALID,0,VALID,24.0837,VALID,48,VALID,0.225781,
2008-05-10, 01:08:04,VALID,1008.41,VALID,0,VALID,94.933,VALID,0,VALID,24.0643,VALID,48,VALID,0.298438,
2008-05-10, 01:09:04,VALID,1008.38,VALID,0,VALID,94.933,VALID,0,VALID,24.0837,VALID,48,VALID,0.198437,
2008-05-10, 01:10:04,VALID,1008.37,VALID,0,VALID,94.9483,VALID,0,VALID,24.0643,VALID,48,VALID,0.194531,
2008-05-10, 01:11:04,VALID,1008.37,VALID,0,VALID,94.9559,VALID,0,VALID,24.0643,VALID,48,VALID,0.213672,
2008-05-10, 01:12:04,VALID,1008.38,VALID,0,VALID,94.994,VALID,0,VALID,24.0448,VALID,48,VALID,0.205859,
2008-05-10, 01:13:04,VALID,1008.38,VALID,0,VALID,95.0093,VALID,0,VALID,24.0448,VALID,48,VALID,0.176953,
2008-05-10, 01:14:04,VALID,1008.42,VALID,0,VALID,95.0321,VALID,0,VALID,24.0235,VALID,48,VALID,0.0929687,
2008-05-10, 01:15:04,VALID,1008.44,VALID,0,VALID,95.0093,VALID,0,VALID,24.0253,VALID,48,VALID,0.210938,
2008-05-10, 01:16:04,VALID,1008.46,VALID,0,VALID,95.0093,VALID,0,VALID,24.0253,VALID,48,VALID,0.0867188,
2008-05-10, 01:17:04,VALID,1008.48,VALID,0,VALID,95.0245,VALID,0,VALID,24.0058,VALID,48,VALID,0,
2008-05-10, 01:18:04,VALID,1008.52,VALID,0,VALID,95.055,VALID,0,VALID,23.9845,VALID,48,VALID,0.172266,
2008-05-10, 01:19:04,VALID,1008.52,VALID,0,VALID,95.1008,VALID,0,VALID,24.0058,VALID,48,VALID,0.251563,
2008-05-10, 01:20:04,VALID,1008.53,VALID,0,VALID,95.1313,VALID,0.105969,VALID,23.965,VALID,48,VALID,0,
2008-05-10, 01:21:04,VALID,1008.57,VALID,0,VALID,95.1694,VALID,0,VALID,23.965,VALID,48,VALID,0,
2008-05-10, 01:22:04,VALID,1008.56,VALID,0,VALID,95.2152,VALID,0,VALID,23.9863,VALID,48,VALID,0.0441406,
2008-05-10, 01:23:04,VALID,1008.56,VALID,0,VALID,95.2152,VALID,0,VALID,24.0058,VALID,48,VALID,0.133203,
2008-05-10, 01:24:04,VALID,1008.52,VALID,0,VALID,95.1999,VALID,0.105969,VALID,23.9863,VALID,48,VALID,0,
2008-05-10, 01:25:04,VALID,1008.55,VALID,0,VALID,95.2075,VALID,0,VALID,23.9863,VALID,48,VALID,0.24375,
2008-05-10, 01:26:04,VALID,1008.52,VALID,0,VALID,95.2685,VALID,0,VALID,23.965,VALID,49,VALID,0.377734,
2008-05-10, 01:27:04,VALID,1008.52,VALID,0,VALID,95.2457,VALID,0,VALID,23.965,VALID,52,VALID,0.351172,
2008-05-10, 01:28:04,VALID,1008.51,VALID,0,VALID,95.2609,VALID,0.105969,VALID,23.9455,VALID,52,VALID,0.111328,
2008-05-10, 01:29:04,VALID,1008.48,VALID,0,VALID,95.299,VALID,0,VALID,23.9668,VALID,52,VALID,0.196094,
2008-05-10, 01:30:04,VALID,1008.51,VALID,0,VALID,95.3295,VALID,0,VALID,23.9473,VALID,52,VALID,0.194141,
2008-05-10, 01:31:04,VALID,1008.53,VALID,0,VALID,95.3295,VALID,0,VALID,23.9455,VALID,59,VALID,0.283203,
2008-05-10, 01:32:04,VALID,1008.53,VALID,0,VALID,95.3524,VALID,0,VALID,23.9455,VALID,59,VALID,0.0894531,
2008-05-10, 01:33:04,VALID,1008.54,VALID,0,VALID,95.3753,VALID,0.105969,VALID,23.9668,VALID,59,VALID,0.0421875,
2008-05-10, 01:34:04,VALID,1008.53,VALID,0,VALID,95.3905,VALID,0.105969,VALID,23.9668,VALID,59,VALID,0.181641,
2008-05-10, 01:35:04,VALID,1008.54,VALID,0,VALID,95.3677,VALID,0,VALID,23.9863,VALID,59,VALID,0.367578,
2008-05-10, 01:36:04,VALID,1008.55,VALID,0,VALID,95.3753,VALID,0,VALID,23.9668,VALID,59,VALID,0.274219,
2008-05-10, 01:37:04,VALID,1008.54,VALID,0,VALID,95.3677,VALID,0.105969,VALID,23.9455,VALID,59,VALID,0.265234,
2008-05-10, 01:38:04,VALID,1008.55,VALID,0,VALID,95.3829,VALID,0,VALID,23.9668,VALID,59,VALID,0.416406,
2008-05-10, 01:39:04,VALID,1008.55,VALID,0,VALID,95.4058,VALID,0,VALID,23.9473,VALID,59,VALID,0.298047,
2008-05-10, 01:40:04,VALID,1008.56,VALID,0,VALID,95.4439,VALID,0.105969,VALID,23.9455,VALID,98,VALID,0.505078,
2008-05-10, 01:41:04,VALID,1008.53,VALID,0,VALID,95.4668,VALID,0.105969,VALID,23.9863,VALID,94,VALID,0.352344,
2008-05-10, 01:42:04,VALID,1008.54,VALID,0,VALID,95.4744,VALID,0.105969,VALID,23.9845,VALID,79,VALID,0.423047,
2008-05-10, 01:43:04,VALID,1008.52,VALID,0,VALID,95.4516,VALID,0,VALID,23.965,VALID,69,VALID,0.401563,
2008-05-10, 01:44:04,VALID,1008.51,VALID,0,VALID,95.4592,VALID,0,VALID,23.9863,VALID,68,VALID,0.237891,
2008-05-10, 01:45:04,VALID,1008.49,VALID,0,VALID,95.4439,VALID,0.105969,VALID,23.9668,VALID,68,VALID,0.198828,
2008-05-10, 01:46:04,VALID,1008.48,VALID,0,VALID,95.4516,VALID,0.105969,VALID,23.9668,VALID,68,VALID,0.375781,
2008-05-10, 01:47:04,VALID,1008.51,VALID,0,VALID,95.4287,VALID,0,VALID,23.9455,VALID,68,VALID,0.235547,
2008-05-10, 01:48:04,VALID,1008.52,VALID,0,VALID,95.4516,VALID,0,VALID,23.9668,VALID,68,VALID,0,
2008-05-10, 01:49:04,VALID,1008.49,VALID,0,VALID,95.4363,VALID,0.105969,VALID,23.9455,VALID,68,VALID,0,
2008-05-10, 01:50:04,VALID,1008.49,VALID,0,VALID,95.4287,VALID,0,VALID,23.9278,VALID,68,VALID,0,
2008-05-10, 01:51:04,VALID,1008.48,VALID,0,VALID,95.3982,VALID,0,VALID,23.8871,VALID,68,VALID,0,
2008-05-10, 01:52:04,VALID,1008.45,VALID,0,VALID,95.4516,VALID,0.105969,VALID,23.9473,VALID,68,VALID,0,
2008-05-10, 01:53:04,VALID,1008.46,VALID,0,VALID,95.4744,VALID,0.105969,VALID,23.9065,VALID,68,VALID,0.175391,
2008-05-10, 01:54:04,VALID,1008.42,VALID,0,VALID,95.4897,VALID,0,VALID,23.926,VALID,68,VALID,0.133984,
2008-05-10, 01:55:04,VALID,1008.41,VALID,0,VALID,95.4897,VALID,0.105969,VALID,23.9278,VALID,68,VALID,0.126563,
2008-05-10, 01:56:04,VALID,1008.42,VALID,0,VALID,95.4821,VALID,0.105969,VALID,23.9084,VALID,68,VALID,0.158984,
2008-05-10, 01:57:04,VALID,1008.42,VALID,0,VALID,95.4897,VALID,0,VALID,23.9084,VALID,68,VALID,0.155859,
2008-05-10, 01:58:04,VALID,1008.43,VALID,0,VALID,95.5049,VALID,0,VALID,23.9084,VALID,68,VALID,0.129688,
2008-05-10, 01:59:04,VALID,1008.41,VALID,0,VALID,95.4897,VALID,0,VALID,23.9084,VALID,68,VALID,0.128906,
2008-05-10, 02:00:04,VALID,1008.42,VALID,0,VALID,95.5126,VALID,0.105969,VALID,23.8889,VALID,68,VALID,0,
2008-05-10, 02:01:04,VALID,1008.44,VALID,0,VALID,95.5278,VALID,0,VALID,23.9084,VALID,68,VALID,0,
2008-05-10, 02:02:04,VALID,1008.45,VALID,0,VALID,95.5278,VALID,0,VALID,23.8694,VALID,68,VALID,0.0078125,
2008-05-10, 02:03:04,VALID,1008.42,VALID,0,VALID,95.5431,VALID,0.105969,VALID,23.8889,VALID,47,VALID,0,
2008-05-10, 02:04:04,VALID,1008.43,VALID,0,VALID,95.5431,VALID,0,VALID,23.8871,VALID,47,VALID,0,
2008-05-10, 02:05:04,VALID,1008.44,VALID,0,VALID,95.5812,VALID,0.105969,VALID,23.8889,VALID,47,VALID,0,
2008-05-10, 02:06:04,VALID,1008.44,VALID,0,VALID,95.6041,VALID,0,VALID,23.8889,VALID,47,VALID,0,
2008-05-10, 02:07:04,VALID,1008.42,VALID,0,VALID,95.6346,VALID,0.105969,VALID,23.8871,VALID,47,VALID,0,
2008-05-10, 02:08:04,VALID,1008.39,VALID,0,VALID,95.6269,VALID,0,VALID,23.9084,VALID,47,VALID,0.103125,
2008-05-10, 02:09:04,VALID,1008.39,VALID,0,VALID,95.6574,VALID,0.105969,VALID,23.9084,VALID,47,VALID,0.258984,
2008-05-10, 02:10:04,VALID,1008.36,VALID,0,VALID,95.6574,VALID,0,VALID,23.9084,VALID,47,VALID,0.166016,
2008-05-10, 02:11:04,VALID,1008.35,VALID,0,VALID,95.6422,VALID,0.105969,VALID,23.8676,VALID,47,VALID,0.220313,
2008-05-10, 02:12:04,VALID,1008.34,VALID,0,VALID,95.6269,VALID,0,VALID,23.8889,VALID,47,VALID,0.250781,
2008-05-10, 02:13:04,VALID,1008.34,VALID,0,VALID,95.6346,VALID,0,VALID,23.8676,VALID,47,VALID,0.243359,
2008-05-10, 02:14:04,VALID,1008.35,VALID,0,VALID,95.6117,VALID,0,VALID,23.8481,VALID,47,VALID,0.159375,
2008-05-10, 02:15:04,VALID,1008.36,VALID,0,VALID,95.6117,VALID,0,VALID,23.8694,VALID,47,VALID,0,
2008-05-10, 02:16:04,VALID,1008.38,VALID,0,VALID,95.6193,VALID,0.105969,VALID,23.8694,VALID,47,VALID,0,
2008-05-10, 02:17:04,VALID,1008.41,VALID,0,VALID,95.6117,VALID,0,VALID,23.8499,VALID,47,VALID,0,
2008-05-10, 02:18:04,VALID,1008.44,VALID,0,VALID,95.6574,VALID,0.105969,VALID,23.8286,VALID,47,VALID,0,
2008-05-10, 02:19:04,VALID,1008.41,VALID,0,VALID,95.6803,VALID,0.105969,VALID,23.8481,VALID,47,VALID,0.00195313,
2008-05-10, 02:20:04,VALID,1008.44,VALID,0,VALID,95.7108,VALID,0.105969,VALID,23.8694,VALID,47,VALID,0.252344,
2008-05-10, 02:21:04,VALID,1008.45,VALID,0,VALID,95.7413,VALID,0.105969,VALID,23.8676,VALID,47,VALID,0.235547,
2008-05-10, 02:22:04,VALID,1008.51,VALID,0,VALID,95.749,VALID,0.105969,VALID,23.8676,VALID,47,VALID,0.112891,
2008-05-10, 02:23:04,VALID,1008.52,VALID,0,VALID,95.7566,VALID,0.105969,VALID,23.8889,VALID,47,VALID,0,
2008-05-10, 02:24:04,VALID,1008.55,VALID,0,VALID,95.7413,VALID,0.105969,VALID,23.8871,VALID,47,VALID,0,
2008-05-10, 02:25:04,VALID,1008.58,VALID,0,VALID,95.7261,VALID,0.105969,VALID,23.8676,VALID,47,VALID,0.0117188,
2008-05-10, 02:26:04,VALID,1008.61,VALID,0,VALID,95.7413,VALID,0.105969,VALID,23.8676,VALID,47,VALID,0.353516,
2008-05-10, 02:27:04,VALID,1008.64,VALID,0,VALID,95.6803,VALID,0,VALID,23.8499,VALID,47,VALID,0.393359,
2008-05-10, 02:28:04,VALID,1008.68,VALID,0,VALID,95.6422,VALID,0,VALID,23.8322,VALID,47,VALID,0.28125,
2008-05-10, 02:29:04,VALID,1008.72,VALID,0,VALID,95.7185,VALID,0,VALID,23.8109,VALID,333,VALID,0.44375,
2008-05-10, 02:30:04,VALID,1008.71,VALID,0,VALID,95.7261,VALID,0,VALID,23.8322,VALID,333,VALID,0.339063,
2008-05-10, 02:31:04,VALID,1008.71,VALID,0,VALID,95.7185,VALID,0,VALID,23.8322,VALID,333,VALID,0.300391,
2008-05-10, 02:32:04,VALID,1008.7,VALID,0,VALID,95.7108,VALID,0,VALID,23.8322,VALID,333,VALID,0.373828,
2008-05-10, 02:33:04,VALID,1008.71,VALID,0,VALID,95.6651,VALID,0,VALID,23.7932,VALID,333,VALID,0.184375,
2008-05-10, 02:34:04,VALID,1008.64,VALID,0,VALID,95.6346,VALID,0,VALID,23.7738,VALID,333,VALID,0,
2008-05-10, 02:35:04,VALID,1008.61,VALID,0,VALID,95.6269,VALID,0,VALID,23.7348,VALID,333,VALID,0,
2008-05-10, 02:36:04,VALID,1008.55,VALID,0,VALID,95.6651,VALID,0,VALID,23.7153,VALID,333,VALID,0.331641,
2008-05-10, 02:37:04,VALID,1008.51,VALID,0,VALID,95.7413,VALID,0,VALID,23.733,VALID,333,VALID,0.346484,
2008-05-10, 02:38:04,VALID,1008.47,VALID,0,VALID,95.7718,VALID,0,VALID,23.7525,VALID,147,VALID,0.557422,
2008-05-10, 02:39:04,VALID,1008.41,VALID,0,VALID,95.7642,VALID,0,VALID,23.7738,VALID,147,VALID,0.569141,
2008-05-10, 02:40:04,VALID,1008.38,VALID,0,VALID,95.7566,VALID,0,VALID,23.7543,VALID,147,VALID,0.554297,
2008-05-10, 02:41:04,VALID,1008.38,VALID,0,VALID,95.749,VALID,0,VALID,23.7153,VALID,147,VALID,0.650391,
2008-05-10, 02:42:04,VALID,1008.36,VALID,0,VALID,95.7261,VALID,0,VALID,23.694,VALID,147,VALID,0.483984,
2008-05-10, 02:43:04,VALID,1008.38,VALID,0,VALID,95.749,VALID,0,VALID,23.6922,VALID,146,VALID,0.393359,
2008-05-10, 02:44:04,VALID,1008.33,VALID,0,VALID,95.7718,VALID,0,VALID,23.694,VALID,147,VALID,0.506641,
2008-05-10, 02:45:04,VALID,1008.33,VALID,0,VALID,95.8023,VALID,0,VALID,23.7135,VALID,139,VALID,0.666016,
2008-05-10, 02:46:04,VALID,1008.28,VALID,0,VALID,95.8252,VALID,0,VALID,23.7117,VALID,137,VALID,0.659766,
2008-05-10, 02:47:04,VALID,1008.25,VALID,0,VALID,95.7871,VALID,0,VALID,23.694,VALID,137,VALID,0.560938,
2008-05-10, 02:48:04,VALID,1008.21,VALID,0,VALID,95.7947,VALID,0,VALID,23.6532,VALID,137,VALID,0.501172,
2008-05-10, 02:49:04,VALID,1008.14,VALID,0,VALID,95.8405,VALID,0,VALID,23.7135,VALID,98,VALID,0.559375,
2008-05-10, 02:50:04,VALID,1008.08,VALID,0,VALID,95.9472,VALID,0,VALID,23.7701,VALID,97,VALID,0.701172,
2008-05-10, 02:51:04,VALID,1008.05,VALID,0,VALID,95.9091,VALID,0,VALID,23.772,VALID,90,VALID,0.441016,
2008-05-10, 02:52:04,VALID,1008.06,VALID,0,VALID,95.9244,VALID,0,VALID,23.8109,VALID,73,VALID,0.782422,
2008-05-10, 02:53:04,VALID,1008.06,VALID,0,VALID,95.9396,VALID,0,VALID,23.8109,VALID,96,VALID,0.801172,
2008-05-10, 02:54:04,VALID,1008.09,VALID,0,VALID,95.9015,VALID,0.105969,VALID,23.8109,VALID,91,VALID,0.628125,
2008-05-10, 02:55:04,VALID,1008.13,VALID,0,VALID,95.9015,VALID,0.105969,VALID,23.8109,VALID,98,VALID,0.601953,
2008-05-10, 02:56:04,VALID,1008.1,VALID,0,VALID,95.9015,VALID,0.105969,VALID,23.8109,VALID,82,VALID,0.485938,
2008-05-10, 02:57:04,VALID,1008.09,VALID,0,VALID,95.9091,VALID,0.105969,VALID,23.8091,VALID,93,VALID,0.601953,
2008-05-10, 02:58:04,VALID,1008.08,VALID,0,VALID,95.8862,VALID,0.105969,VALID,23.8109,VALID,92,VALID,0.858203,
2008-05-10, 02:59:04,VALID,1008.07,VALID,0,VALID,95.871,VALID,0.105969,VALID,23.7507,VALID,83,VALID,0.349219,
2008-05-10, 03:00:04,VALID,1008.04,VALID,0,VALID,95.8557,VALID,0,VALID,23.772,VALID,83,VALID,0.278125,
2008-05-10, 03:01:04,VALID,1008.03,VALID,0,VALID,95.8786,VALID,0.105969,VALID,23.772,VALID,99,VALID,0.503906,
2008-05-10, 03:02:04,VALID,1008.03,VALID,0,VALID,95.8939,VALID,0,VALID,23.7507,VALID,103,VALID,0.572656,
2008-05-10, 03:03:04,VALID,1008.01,VALID,0,VALID,95.8862,VALID,0.105969,VALID,23.7914,VALID,102,VALID,0.455469,
2008-05-10, 03:04:04,VALID,1008.02,VALID,0,VALID,95.8786,VALID,0,VALID,23.7312,VALID,102,VALID,0.365234,
2008-05-10, 03:05:04,VALID,1008,VALID,0,VALID,95.8481,VALID,0.105969,VALID,23.7525,VALID,102,VALID,0.467578,
2008-05-10, 03:06:04,VALID,1008,VALID,0,VALID,95.8557,VALID,0.105969,VALID,23.7312,VALID,102,VALID,0.49375,
2008-05-10, 03:07:04,VALID,1008,VALID,0,VALID,95.8633,VALID,0,VALID,23.7525,VALID,98,VALID,0.423438,
2008-05-10, 03:08:04,VALID,1007.99,VALID,0,VALID,95.8633,VALID,0.105969,VALID,23.733,VALID,82,VALID,0.453516,
2008-05-10, 03:09:04,VALID,1008.02,VALID,0,VALID,95.8786,VALID,0,VALID,23.733,VALID,82,VALID,0.428516,
2008-05-10, 03:10:04,VALID,1008.04,VALID,0,VALID,95.8786,VALID,0.105969,VALID,23.7117,VALID,83,VALID,0.189453,
2008-05-10, 03:11:04,VALID,1008.09,VALID,0,VALID,95.8939,VALID,0.105969,VALID,23.7117,VALID,91,VALID,0.401172,
2008-05-10, 03:12:04,VALID,1008.09,VALID,0,VALID,95.8405,VALID,0,VALID,23.694,VALID,131,VALID,0.413281,
2008-05-10, 03:13:04,VALID,1008.11,VALID,0,VALID,95.8481,VALID,0,VALID,23.6745,VALID,132,VALID,0,
2008-05-10, 03:14:04,VALID,1008.13,VALID,0,VALID,95.8557,VALID,0,VALID,23.6745,VALID,131,VALID,0,
2008-05-10, 03:15:04,VALID,1008.12,VALID,0,VALID,95.8786,VALID,0,VALID,23.6958,VALID,132,VALID,0,
2008-05-10, 03:16:04,VALID,1008.17,VALID,0,VALID,95.8786,VALID,0,VALID,23.6745,VALID,132,VALID,0,
2008-05-10, 03:17:04,VALID,1008.16,VALID,0,VALID,95.8786,VALID,0,VALID,23.6763,VALID,132,VALID,0,
2008-05-10, 03:18:04,VALID,1008.21,VALID,0,VALID,95.8405,VALID,0,VALID,23.655,VALID,132,VALID,0,
2008-05-10, 03:19:04,VALID,1008.2,VALID,0,VALID,95.8252,VALID,0,VALID,23.6161,VALID,132,VALID,0,
2008-05-10, 03:20:04,VALID,1008.21,VALID,0,VALID,95.8252,VALID,0,VALID,23.6161,VALID,132,VALID,0,
2008-05-10, 03:21:04,VALID,1008.23,VALID,0,VALID,95.871,VALID,0,VALID,23.6179,VALID,131,VALID,0,
2008-05-10, 03:22:04,VALID,1008.19,VALID,0,VALID,95.8786,VALID,0,VALID,23.6373,VALID,132,VALID,0,
2008-05-10, 03:23:04,VALID,1008.19,VALID,0,VALID,95.8862,VALID,0,VALID,23.6161,VALID,132,VALID,0,
2008-05-10, 03:24:04,VALID,1008.16,VALID,0,VALID,95.8786,VALID,0,VALID,23.6373,VALID,132,VALID,0,
2008-05-10, 03:25:04,VALID,1008.13,VALID,0,VALID,95.9015,VALID,0,VALID,23.5966,VALID,131,VALID,0,
2008-05-10, 03:26:04,VALID,1008.14,VALID,0,VALID,95.871,VALID,0,VALID,23.5771,VALID,132,VALID,0,
2008-05-10, 03:27:04,VALID,1008.12,VALID,0,VALID,95.8557,VALID,0,VALID,23.5789,VALID,132,VALID,0,
2008-05-10, 03:28:04,VALID,1008.1,VALID,0,VALID,95.8557,VALID,0,VALID,23.5381,VALID,132,VALID,0,
2008-05-10, 03:29:04,VALID,1008.09,VALID,0,VALID,95.871,VALID,0,VALID,23.5381,VALID,131,VALID,0,
2008-05-10, 03:30:04,VALID,1008.1,VALID,0,VALID,95.8633,VALID,0,VALID,23.5399,VALID,132,VALID,0,
2008-05-10, 03:31:04,VALID,1008.14,VALID,0,VALID,95.8633,VALID,0,VALID,23.4797,VALID,132,VALID,0,
2008-05-10, 03:32:04,VALID,1008.14,VALID,0,VALID,95.8557,VALID,0,VALID,23.4797,VALID,132,VALID,0,
2008-05-10, 03:33:04,VALID,1008.15,VALID,0,VALID,95.8786,VALID,0,VALID,23.4602,VALID,132,VALID,0,
2008-05-10, 03:34:04,VALID,1008.16,VALID,0,VALID,95.9472,VALID,0,VALID,23.4797,VALID,132,VALID,0,
2008-05-10, 03:35:04,VALID,1008.17,VALID,0,VALID,95.9625,VALID,0,VALID,23.5204,VALID,130,VALID,0,
2008-05-10, 03:36:04,VALID,1008.17,VALID,0,VALID,95.9701,VALID,0,VALID,23.4992,VALID,130,VALID,0,
2008-05-10, 03:37:04,VALID,1008.18,VALID,0,VALID,95.993,VALID,0,VALID,23.5186,VALID,130,VALID,0,
2008-05-10, 03:38:04,VALID,1008.17,VALID,0,VALID,96.0006,VALID,0,VALID,23.5186,VALID,130,VALID,0,
2008-05-10, 03:39:04,VALID,1008.19,VALID,0,VALID,96.0159,VALID,0,VALID,23.5381,VALID,130,VALID,0,
2008-05-10, 03:40:04,VALID,1008.19,VALID,0,VALID,95.9777,VALID,0,VALID,23.5381,VALID,130,VALID,0,
2008-05-10, 03:41:04,VALID,1008.17,VALID,0,VALID,95.9472,VALID,0,VALID,23.4992,VALID,130,VALID,0,
2008-05-10, 03:42:04,VALID,1008.18,VALID,0,VALID,95.9625,VALID,0,VALID,23.4992,VALID,130,VALID,0,
2008-05-10, 03:43:04,VALID,1008.17,VALID,0,VALID,95.9701,VALID,0,VALID,23.5204,VALID,130,VALID,0,
2008-05-10, 03:44:04,VALID,1008.18,VALID,0,VALID,95.9777,VALID,0,VALID,23.4992,VALID,130,VALID,0,
2008-05-10, 03:45:04,VALID,1008.17,VALID,0,VALID,95.9701,VALID,0,VALID,23.4992,VALID,130,VALID,0,
2008-05-10, 03:46:04,VALID,1008.12,VALID,0,VALID,96.0006,VALID,0,VALID,23.4797,VALID,130,VALID,0,